User: anonymous   Login
Location: Unspecified
(0.0000°N, 0.0000°E)
Time: 19:33:32
(UTC+00:00)
Language:

Galileo 6 - Orbit

View from above orbital plane
View from above orbital plane
View from above satellite
View from above satellite

Ground track
Ground track

The orbit data is extracted from the following two-line orbital elements,

1 40129U 14050B   21025.19405954 -.00000097  00000-0  00000-0 0  9990
2 40129  50.5576 351.5762 1649448 107.4132 271.2685  1.85519911 43951
Epoch (UTC): 25 January 2021 04:39:26
Eccentricity: 0.1649448
inclination: 50.5576°
perigee height: 16984 km
apogee height: 26214 km
right ascension of ascending node: 351.5762°
argument of perigee: 107.4132°
revolutions per day: 1.85519911
mean anomaly at epoch: 271.2685°
orbit number at epoch: 4395

The dashed part of the orbit path shows where the satellite is in the earth's shadow,  

DLR